| time (UTC) | temp F | wind direction | speed MPH | gust MPH | rain 1hr in | rain 24hr in | rain mn in | humidity % | barometer mb |
| 20260508145547 | 59 | 155 | 0.0 | 0.0 | 0.00 | 0.00 | 0.00 | 74 | 1009.9 |
| 20260508145023 | 59 | 155 | 0.0 | 1.0 | 0.00 | 0.00 | 0.00 | 74 | 1009.8 |
| 20260508144610 | 59 | 155 | 0.0 | 1.0 | 0.00 | 0.00 | 0.00 | 73 | 1009.8 |
| 20260508144040 | 59 | 155 | 0.0 | 1.0 | 0.00 | 0.00 | 0.00 | 73 | 1009.7 |
| 20260508143517 | 59 | 136 | 0.0 | 3.0 | 0.00 | 0.00 | 0.00 | 73 | 1009.6 |
| 20260508143105 | 59 | 136 | 0.0 | 4.0 | 0.00 | 0.00 | 0.00 | 73 | 1009.6 |
| 20260508142534 | 59 | 156 | 1.0 | 4.0 | 0.00 | 0.00 | 0.00 | 73 | 1009.6 |
| 20260508142010 | 59 | 160 | 0.0 | 3.0 | 0.00 | 0.00 | 0.00 | 74 | 1009.7 |
| 20260508141558 | 58 | 160 | 0.0 | 3.0 | 0.00 | 0.00 | 0.00 | 74 | 1009.6 |
| 20260508141028 | 58 | 155 | 0.0 | 2.0 | 0.00 | 0.00 | 0.00 | 74 | 1009.7 |
| 20260508140505 | 58 | 155 | 0.0 | 3.0 | 0.00 | 0.00 | 0.00 | 74 | 1009.7 |
| 20260508140045 | 58 | 158 | 0.0 | 3.0 | 0.00 | 0.00 | 0.00 | 73 | 1009.7 |
| 20260508135521 | 58 | 160 | 0.0 | 2.0 | 0.00 | 0.00 | 0.00 | 73 | 1009.8 |
| 20260508135101 | 58 | 155 | 0.0 | 1.0 | 0.00 | 0.00 | 0.00 | 73 | 1009.8 |
| 20260508134553 | 58 | 163 | 0.0 | 1.0 | 0.00 | 0.00 | 0.00 | 74 | 1009.8 |
| 20260508134014 | 58 | 162 | 0.0 | 0.0 | 0.00 | 0.00 | 0.00 | 74 | 1009.9 |
| 20260508133555 | 58 | 162 | 0.0 | 0.0 | 0.00 | 0.00 | 0.00 | 74 | 1010.0 |
| 20260508133045 | 58 | 162 | 0.0 | 1.0 | 0.00 | 0.00 | 0.00 | 74 | 1010.0 |
| 20260508132506 | 58 | 162 | 0.0 | 1.0 | 0.00 | 0.00 | 0.00 | 74 | 1009.8 |
| 20260508132047 | 58 | 156 | 0.0 | 0.0 | 0.00 | 0.00 | 0.00 | 74 | 1010.0 |
| 20260508131523 | 58 | 156 | 0.0 | 1.0 | 0.00 | 0.00 | 0.00 | 74 | 1010.0 |
| 20260508131105 | 58 | 156 | 0.0 | 1.0 | 0.00 | 0.00 | 0.00 | 74 | 1010.0 |
| 20260508130540 | 57 | 156 | 0.0 | 1.0 | 0.00 | 0.00 | 0.00 | 74 | 1010.0 |
| 20260508130016 | 57 | 96 | 0.0 | 1.0 | 0.00 | 0.00 | 0.00 | 74 | 1010.0 |
| 20260508125556 | 57 | 96 | 0.0 | 1.0 | 0.00 | 0.00 | 0.00 | 73 | 1010.0 |
| 20260508125034 | 57 | 95 | 0.0 | 1.0 | 0.00 | 0.00 | 0.00 | 74 | 1010.0 |
| 20260508124512 | 57 | 158 | 0.0 | 0.0 | 0.00 | 0.00 | 0.00 | 74 | 1010.0 |
| 20260508124050 | 57 | 158 | 0.0 | 1.0 | 0.00 | 0.00 | 0.00 | 74 | 1009.8 |
| 20260508123526 | 57 | 158 | 0.0 | 1.0 | 0.00 | 0.00 | 0.00 | 74 | 1009.7 |
| 20260508123002 | 57 | 141 | 0.0 | 4.0 | 0.00 | 0.00 | 0.00 | 74 | 1009.5 |
| 20260508122543 | 56 | 141 | 0.0 | 4.0 | 0.00 | 0.00 | 0.00 | 74 | 1009.4 |
| 20260508122018 | 56 | 152 | 0.0 | 2.0 | 0.00 | 0.00 | 0.00 | 75 | 1009.6 |
| 20260508121559 | 56 | 158 | 0.0 | 1.0 | 0.00 | 0.00 | 0.00 | 74 | 1009.5 |
| 20260508121035 | 56 | 158 | 0.0 | 1.0 | 0.00 | 0.00 | 0.00 | 75 | 1009.2 |
| 20260508120512 | 56 | 158 | 0.0 | 1.0 | 0.00 | 0.00 | 0.00 | 75 | 1009.2 |
| 20260508120053 | 56 | 158 | 0.0 | 2.0 | 0.00 | 0.00 | 0.00 | 74 | 1009.2 |
| 20260508115532 | 56 | 158 | 0.0 | 2.0 | 0.00 | 0.00 | 0.00 | 75 | 1009.2 |
| 20260508115003 | 56 | 158 | 0.0 | 3.0 | 0.00 | 0.00 | 0.00 | 75 | 1009.1 |
| 20260508114543 | 56 | 154 | 1.0 | 3.0 | 0.00 | 0.00 | 0.00 | 75 | 1009.0 |
| 20260508114019 | 56 | 157 | 0.0 | 2.0 | 0.00 | 0.00 | 0.00 | 75 | 1009.0 |
| 20260508113559 | 56 | 161 | 0.0 | 2.0 | 0.00 | 0.00 | 0.00 | 75 | 1009.1 |
| 20260508113038 | 56 | 161 | 0.0 | 3.0 | 0.00 | 0.00 | 0.00 | 75 | 1009.0 |
| 20260508112511 | 56 | 195 | 1.0 | 3.0 | 0.00 | 0.00 | 0.00 | 75 | 1008.9 |
| 20260508112052 | 56 | 165 | 0.0 | 2.0 | 0.00 | 0.00 | 0.00 | 75 | 1009.1 |
| 20260508111535 | 55 | 144 | 0.0 | 2.0 | 0.00 | 0.00 | 0.00 | 75 | 1008.9 |
| 20260508111005 | 55 | 158 | 0.0 | 2.0 | 0.00 | 0.00 | 0.00 | 75 | 1008.9 |
| 20260508110544 | 55 | 152 | 0.0 | 2.0 | 0.00 | 0.00 | 0.00 | 75 | 1008.8 |
| 20260508110024 | 55 | 130 | 0.0 | 2.0 | 0.00 | 0.00 | 0.00 | 75 | 1008.9 |
| 20260508105604 | 55 | 160 | 0.0 | 2.0 | 0.00 | 0.00 | 0.00 | 75 | 1008.9 |
| 20260508105037 | 55 | 148 | 0.0 | 2.0 | 0.00 | 0.00 | 0.00 | 75 | 1008.9 |
| 20260508104512 | 55 | 112 | 0.0 | 2.0 | 0.00 | 0.00 | 0.00 | 75 | 1008.9 |
| 20260508104055 | 55 | 152 | 0.0 | 2.0 | 0.00 | 0.00 | 0.00 | 75 | 1008.8 |
| 20260508103531 | 55 | 158 | 0.0 | 3.0 | 0.00 | 0.00 | 0.00 | 75 | 1008.7 |
| 20260508103008 | 55 | 134 | 0.0 | 3.0 | 0.00 | 0.00 | 0.00 | 75 | 1008.8 |
| 20260508102548 | 55 | 159 | 0.0 | 2.0 | 0.00 | 0.00 | 0.00 | 75 | 1008.7 |
| 20260508102025 | 55 | 159 | 0.0 | 2.0 | 0.00 | 0.00 | 0.00 | 75 | 1008.8 |
| 20260508101501 | 55 | 158 | 0.0 | 2.0 | 0.00 | 0.00 | 0.00 | 75 | 1008.7 |
| 20260508101042 | 55 | 148 | 0.0 | 2.0 | 0.00 | 0.00 | 0.00 | 75 | 1008.7 |
| 20260508100522 | 55 | 155 | 0.0 | 3.0 | 0.00 | 0.00 | 0.00 | 75 | 1008.7 |
| 20260508100112 | 55 | 152 | 0.0 | 3.0 | 0.00 | 0.00 | 0.00 | 75 | 1008.6 |
| 20260508095534 | 55 | 164 | 0.0 | 3.0 | 0.00 | 0.00 | 0.00 | 75 | 1008.6 |
| 20260508095010 | 55 | 158 | 0.0 | 2.0 | 0.00 | 0.00 | 0.00 | 75 | 1008.7 |
| 20260508094602 | 55 | 168 | 0.0 | 2.0 | 0.00 | 0.00 | 0.00 | 75 | 1008.7 |
| 20260508094026 | 55 | 157 | 0.0 | 2.0 | 0.00 | 0.00 | 0.00 | 75 | 1008.7 |
| 20260508093504 | 55 | 160 | 0.0 | 2.0 | 0.00 | 0.00 | 0.00 | 75 | 1008.7 |
| 20260508093044 | 55 | 169 | 0.0 | 2.0 | 0.00 | 0.00 | 0.00 | 75 | 1008.7 |
| 20260508092520 | 55 | 164 | 0.0 | 4.0 | 0.00 | 0.00 | 0.00 | 75 | 1008.8 |
| 20260508092100 | 55 | 152 | 0.0 | 4.0 | 0.00 | 0.00 | 0.00 | 75 | 1008.7 |
| 20260508091540 | 55 | 147 | 1.0 | 2.0 | 0.00 | 0.00 | 0.00 | 75 | 1008.8 |
| 20260508091017 | 55 | 155 | 0.0 | 2.0 | 0.00 | 0.00 | 0.00 | 75 | 1008.9 |
| 20260508090555 | 55 | 150 | 0.0 | 2.0 | 0.00 | 0.00 | 0.00 | 74 | 1008.9 |
| 20260508090045 | 55 | 158 | 0.0 | 2.0 | 0.00 | 0.00 | 0.00 | 74 | 1008.9 |
| 20260508085506 | 55 | 147 | 0.0 | 2.0 | 0.00 | 0.00 | 0.00 | 74 | 1008.9 |
| 20260508085050 | 55 | 163 | 0.0 | 2.0 | 0.00 | 0.00 | 0.00 | 74 | 1008.8 |
| 20260508084522 | 55 | 161 | 0.0 | 2.0 | 0.00 | 0.00 | 0.00 | 74 | 1008.9 |
| 20260508084103 | 55 | 150 | 0.0 | 2.0 | 0.00 | 0.00 | 0.00 | 74 | 1008.9 |
| 20260508083539 | 55 | 151 | 0.0 | 2.0 | 0.00 | 0.00 | 0.00 | 74 | 1009.1 |
| 20260508083014 | 55 | 152 | 0.0 | 2.0 | 0.00 | 0.00 | 0.00 | 74 | 1009.0 |
| 20260508082555 | 55 | 143 | 0.0 | 2.0 | 0.00 | 0.00 | 0.00 | 74 | 1009.1 |
| 20260508082033 | 55 | 158 | 0.0 | 2.0 | 0.00 | 0.00 | 0.00 | 74 | 1009.2 |
| 20260508081508 | 55 | 141 | 1.0 | 2.0 | 0.00 | 0.00 | 0.00 | 74 | 1009.2 |
| 20260508081048 | 55 | 158 | 0.0 | 3.0 | 0.00 | 0.00 | 0.00 | 73 | 1009.3 |
| 20260508080531 | 55 | 165 | 0.0 | 3.0 | 0.00 | 0.00 | 0.00 | 73 | 1009.4 |
| 20260508080001 | 55 | 155 | 0.0 | 3.0 | 0.00 | 0.00 | 0.00 | 73 | 1009.4 |
| 20260508075544 | 55 | 162 | 0.0 | 2.0 | 0.00 | 0.00 | 0.00 | 73 | 1009.4 |
| 20260508075017 | 55 | 160 | 0.0 | 2.0 | 0.00 | 0.00 | 0.00 | 73 | 1009.6 |
| 20260508074558 | 55 | 160 | 0.0 | 2.0 | 0.00 | 0.00 | 0.00 | 73 | 1009.6 |
| 20260508074033 | 55 | 113 | 0.0 | 2.0 | 0.00 | 0.00 | 0.00 | 73 | 1009.6 |
| 20260508073511 | 55 | 151 | 0.0 | 3.0 | 0.00 | 0.00 | 0.00 | 72 | 1009.7 |
| 20260508073106 | 55 | 159 | 1.0 | 3.0 | 0.00 | 0.00 | 0.00 | 72 | 1009.7 |
| 20260508072526 | 56 | 153 | 0.0 | 2.0 | 0.00 | 0.00 | 0.00 | 72 | 1009.9 |
| 20260508072002 | 56 | 140 | 0.0 | 2.0 | 0.00 | 0.00 | 0.00 | 71 | 1009.9 |
| 20260508071544 | 56 | 121 | 0.0 | 2.0 | 0.00 | 0.00 | 0.00 | 71 | 1010.0 |
| 20260508071018 | 56 | 172 | 0.0 | 2.0 | 0.00 | 0.00 | 0.00 | 71 | 1010.1 |
| 20260508070558 | 56 | 138 | 0.0 | 2.0 | 0.00 | 0.00 | 0.00 | 70 | 1010.2 |
| 20260508070032 | 56 | 154 | 0.0 | 3.0 | 0.00 | 0.00 | 0.00 | 70 | 1010.2 |
| 20260508065508 | 56 | 157 | 0.0 | 3.0 | 0.00 | 0.00 | 0.00 | 70 | 1010.2 |
| 20260508065048 | 57 | 165 | 0.0 | 3.0 | 0.00 | 0.00 | 0.00 | 69 | 1010.3 |
| 20260508064524 | 57 | 161 | 0.0 | 3.0 | 0.00 | 0.00 | 0.00 | 69 | 1010.3 |
| 20260508064104 | 57 | 152 | 0.0 | 3.0 | 0.00 | 0.00 | 0.00 | 69 | 1010.4 |
| 20260508063541 | 57 | 167 | 0.0 | 3.0 | 0.00 | 0.00 | 0.00 | 69 | 1010.4 |
| 20260508063016 | 57 | 157 | 0.0 | 4.0 | 0.00 | 0.00 | 0.00 | 69 | 1010.4 |
| 20260508062557 | 57 | 126 | 1.0 | 4.0 | 0.00 | 0.00 | 0.00 | 69 | 1010.4 |
| 20260508062033 | 57 | 110 | 0.0 | 3.0 | 0.00 | 0.00 | 0.00 | 68 | 1010.5 |
| 20260508061509 | 57 | 158 | 0.0 | 3.0 | 0.00 | 0.00 | 0.00 | 68 | 1010.5 |
| 20260508061050 | 58 | 162 | 0.0 | 2.0 | 0.00 | 0.00 | 0.00 | 68 | 1010.5 |
| 20260508060527 | 58 | 162 | 0.0 | 3.0 | 0.00 | 0.00 | 0.00 | 67 | 1010.6 |
| 20260508060002 | 58 | 156 | 1.0 | 3.0 | 0.00 | 0.00 | 0.00 | 67 | 1010.5 |
| 20260508055543 | 58 | 163 | 0.0 | 2.0 | 0.00 | 0.00 | 0.00 | 67 | 1010.5 |
| 20260508055018 | 58 | 129 | 0.0 | 3.0 | 0.00 | 0.00 | 0.00 | 66 | 1010.6 |
| 20260508054600 | 58 | 159 | 0.0 | 4.0 | 0.00 | 0.00 | 0.00 | 66 | 1010.6 |
| 20260508054035 | 58 | 161 | 1.0 | 4.0 | 0.00 | 0.00 | 0.00 | 66 | 1010.5 |
| 20260508053510 | 58 | 161 | 0.0 | 3.0 | 0.00 | 0.00 | 0.00 | 66 | 1010.5 |
| 20260508053055 | 59 | 157 | 0.0 | 2.0 | 0.00 | 0.00 | 0.00 | 66 | 1010.5 |
| 20260508052530 | 59 | 154 | 0.0 | 3.0 | 0.00 | 0.00 | 0.00 | 66 | 1010.5 |
| 20260508052003 | 59 | 155 | 0.0 | 3.0 | 0.00 | 0.00 | 0.00 | 65 | 1010.6 |
| 20260508051602 | 59 | 161 | 0.0 | 2.0 | 0.00 | 0.00 | 0.00 | 65 | 1010.5 |
| 20260508051028 | 59 | 150 | 0.0 | 3.0 | 0.00 | 0.00 | 0.00 | 65 | 1010.6 |
| 20260508050600 | 59 | 131 | 0.0 | 3.0 | 0.00 | 0.00 | 0.00 | 65 | 1010.7 |
| 20260508050034 | 59 | 149 | 0.0 | 3.0 | 0.00 | 0.00 | 0.00 | 65 | 1010.7 |
| 20260508045510 | 59 | 148 | 0.0 | 3.0 | 0.00 | 0.00 | 0.00 | 65 | 1010.8 |
| 20260508045050 | 59 | 160 | 0.0 | 3.0 | 0.00 | 0.00 | 0.00 | 65 | 1010.7 |
| 20260508044527 | 59 | 162 | 0.0 | 4.0 | 0.00 | 0.00 | 0.00 | 64 | 1010.9 |
| 20260508044003 | 59 | 155 | 1.0 | 4.0 | 0.00 | 0.00 | 0.00 | 64 | 1010.9 |
| 20260508043543 | 59 | 113 | 0.0 | 4.0 | 0.00 | 0.00 | 0.00 | 64 | 1010.9 |
| 20260508043020 | 59 | 156 | 0.0 | 2.0 | 0.00 | 0.00 | 0.00 | 64 | 1010.9 |
| 20260508042601 | 60 | 146 | 0.0 | 5.0 | 0.00 | 0.00 | 0.00 | 64 | 1010.9 |
| 20260508042037 | 60 | 163 | 1.0 | 5.0 | 0.00 | 0.00 | 0.00 | 63 | 1010.9 |
| 20260508041514 | 60 | 162 | 1.0 | 4.0 | 0.00 | 0.00 | 0.00 | 63 | 1010.9 |
| 20260508041054 | 60 | 173 | 1.0 | 4.0 | 0.00 | 0.00 | 0.00 | 63 | 1011.0 |
| 20260508040531 | 60 | 160 | 1.0 | 3.0 | 0.00 | 0.00 | 0.00 | 63 | 1011.0 |
| 20260508040006 | 60 | 139 | 0.0 | 3.0 | 0.00 | 0.00 | 0.00 | 62 | 1010.9 |
| 20260508035547 | 60 | 146 | 0.0 | 3.0 | 0.00 | 0.00 | 0.00 | 62 | 1010.9 |
| 20260508035021 | 60 | 162 | 0.0 | 3.0 | 0.00 | 0.00 | 0.00 | 62 | 1010.9 |
| 20260508034601 | 60 | 153 | 0.0 | 3.0 | 0.00 | 0.00 | 0.00 | 62 | 1010.9 |
| 20260508034035 | 60 | 165 | 0.0 | 4.0 | 0.00 | 0.00 | 0.00 | 62 | 1010.9 |
| 20260508033503 | 60 | 170 | 0.0 | 3.0 | 0.00 | 0.00 | 0.00 | 62 | 1010.9 |
| 20260508033047 | 60 | 134 | 0.0 | 3.0 | 0.00 | 0.00 | 0.00 | 62 | 1010.9 |
| 20260508032524 | 61 | 168 | 0.0 | 3.0 | 0.00 | 0.00 | 0.00 | 62 | 1010.9 |
| 20260508032103 | 61 | 125 | 0.0 | 5.0 | 0.00 | 0.00 | 0.00 | 62 | 1010.9 |
| 20260508031541 | 60 | 147 | 1.0 | 5.0 | 0.00 | 0.00 | 0.00 | 62 | 1010.8 |
| 20260508031014 | 60 | 151 | 1.0 | 4.0 | 0.00 | 0.00 | 0.00 | 63 | 1010.9 |
| 20260508030553 | 60 | 167 | 0.0 | 3.0 | 0.00 | 0.00 | 0.00 | 63 | 1010.8 |
| 20260508030029 | 60 | 155 | 0.0 | 2.0 | 0.00 | 0.00 | 0.00 | 63 | 1010.7 |
| 20260508025505 | 60 | 167 | 1.0 | 4.0 | 0.00 | 0.00 | 0.00 | 63 | 1010.6 |
| 20260508025045 | 60 | 150 | 1.0 | 4.0 | 0.00 | 0.00 | 0.00 | 63 | 1010.6 |
| 20260508024546 | 60 | 161 | 0.0 | 2.0 | 0.00 | 0.00 | 0.00 | 64 | 1010.6 |
| 20260508024103 | 60 | 144 | 0.0 | 2.0 | 0.00 | 0.00 | 0.00 | 64 | 1010.5 |
| 20260508023539 | 60 | 135 | 0.0 | 2.0 | 0.00 | 0.00 | 0.00 | 63 | 1010.5 |
| 20260508023016 | 61 | 150 | 0.0 | 2.0 | 0.00 | 0.00 | 0.00 | 63 | 1010.4 |
| 20260508022601 | 61 | 158 | 0.0 | 2.0 | 0.00 | 0.00 | 0.00 | 62 | 1010.4 |
| 20260508022034 | 61 | 151 | 0.0 | 2.0 | 0.00 | 0.00 | 0.00 | 62 | 1010.3 |
| 20260508021509 | 61 | 161 | 0.0 | 2.0 | 0.00 | 0.00 | 0.00 | 62 | 1010.3 |
| 20260508021051 | 61 | 170 | 0.0 | 2.0 | 0.00 | 0.00 | 0.00 | 62 | 1010.3 |
| 20260508020527 | 61 | 145 | 0.0 | 2.0 | 0.00 | 0.00 | 0.00 | 61 | 1010.3 |
| 20260508020004 | 61 | 146 | 0.0 | 2.0 | 0.00 | 0.00 | 0.00 | 61 | 1010.2 |
| 20260508015543 | 62 | 149 | 0.0 | 1.0 | 0.00 | 0.00 | 0.00 | 61 | 1010.2 |
| 20260508015027 | 62 | 148 | 0.0 | 1.0 | 0.00 | 0.00 | 0.00 | 60 | 1010.2 |
| 20260508014504 | 62 | 156 | 0.0 | 1.0 | 0.00 | 0.00 | 0.00 | 59 | 1010.2 |
| 20260508014043 | 62 | 151 | 0.0 | 1.0 | 0.00 | 0.00 | 0.00 | 59 | 1010.2 |
| 20260508013523 | 63 | 138 | 0.0 | 1.0 | 0.00 | 0.00 | 0.00 | 58 | 1010.2 |
| 20260508013101 | 63 | 150 | 0.0 | 1.0 | 0.00 | 0.00 | 0.00 | 57 | 1010.1 |
| 20260508012537 | 63 | 153 | 0.0 | 1.0 | 0.00 | 0.00 | 0.00 | 57 | 1010.1 |
| 20260508012014 | 63 | 153 | 0.0 | 1.0 | 0.00 | 0.00 | 0.00 | 56 | 1010.1 |
| 20260508011605 | 63 | 156 | 0.0 | 1.0 | 0.00 | 0.00 | 0.00 | 56 | 1010.1 |
| 20260508011031 | 64 | 153 | 0.0 | 1.0 | 0.00 | 0.00 | 0.00 | 55 | 1010.0 |
| 20260508010508 | 64 | 148 | 0.0 | 1.0 | 0.00 | 0.00 | 0.00 | 55 | 1010.1 |
| 20260508010053 | 64 | 152 | 0.0 | 1.0 | 0.00 | 0.00 | 0.00 | 54 | 1010.1 |
| 20260508005524 | 64 | 148 | 0.0 | 1.0 | 0.00 | 0.00 | 0.00 | 54 | 1010.1 |
| 20260508005105 | 65 | 148 | 0.0 | 2.0 | 0.00 | 0.00 | 0.00 | 53 | 1010.1 |
| 20260508004550 | 65 | 148 | 0.0 | 2.0 | 0.00 | 0.00 | 0.00 | 53 | 1010.1 |
| 20260508004017 | 65 | 166 | 0.0 | 1.0 | 0.00 | 0.00 | 0.00 | 52 | 1010.2 |
| 20260508003558 | 65 | 136 | 0.0 | 2.0 | 0.00 | 0.00 | 0.00 | 52 | 1010.3 |
| 20260508003035 | 65 | 136 | 0.0 | 2.0 | 0.00 | 0.00 | 0.00 | 51 | 1010.2 |
| 20260508002510 | 66 | 138 | 0.0 | 2.0 | 0.00 | 0.00 | 0.00 | 50 | 1010.3 |
| 20260508002051 | 66 | 165 | 0.0 | 2.0 | 0.00 | 0.00 | 0.00 | 51 | 1010.3 |
| 20260508001536 | 66 | 165 | 0.0 | 2.0 | 0.00 | 0.00 | 0.00 | 49 | 1010.4 |
| 20260508001002 | 67 | 165 | 0.0 | 2.0 | 0.00 | 0.00 | 0.00 | 49 | 1010.4 |
| 20260508000542 | 67 | 159 | 0.0 | 3.0 | 0.00 | 0.00 | 0.00 | 48 | 1010.4 |
| 20260508000019 | 67 | 158 | 1.0 | 3.0 | 0.00 | 0.00 | 0.00 | 47 | 1010.5 |
| 20260507235600 | 67 | 259 | 0.0 | 4.0 | 0.00 | 0.00 | 0.00 | 47 | 1010.5 |
| 20260507235036 | 67 | 283 | 0.0 | 4.0 | 0.00 | 0.00 | 0.00 | 47 | 1010.6 |
| 20260507234513 | 67 | 168 | 0.0 | 3.0 | 0.00 | 0.00 | 0.00 | 48 | 1010.5 |
| 20260507234053 | 67 | 255 | 0.0 | 3.0 | 0.00 | 0.00 | 0.00 | 46 | 1010.5 |
| 20260507233529 | 67 | 200 | 0.0 | 2.0 | 0.00 | 0.00 | 0.00 | 48 | 1010.5 |
| 20260507233006 | 67 | 159 | 0.0 | 2.0 | 0.00 | 0.00 | 0.00 | 48 | 1010.5 |
| 20260507232547 | 67 | 300 | 0.0 | 2.0 | 0.00 | 0.00 | 0.00 | 49 | 1010.5 |
| 20260507232023 | 67 | 302 | 0.0 | 1.0 | 0.00 | 0.00 | 0.00 | 49 | 1010.5 |
| 20260507231606 | 67 | 302 | 0.0 | 1.0 | 0.00 | 0.00 | 0.00 | 48 | 1010.6 |
| 20260507231038 | 67 | 126 | 0.0 | 2.0 | 0.00 | 0.00 | 0.00 | 50 | 1010.7 |
| 20260507230511 | 67 | 156 | 0.0 | 4.0 | 0.00 | 0.00 | 0.00 | 48 | 1010.7 |
| 20260507230107 | 67 | 216 | 1.0 | 4.0 | 0.00 | 0.00 | 0.00 | 48 | 1010.7 |
| 20260507225528 | 67 | 157 | 0.0 | 6.0 | 0.00 | 0.00 | 0.00 | 50 | 1010.8 |
| 20260507225006 | 67 | 291 | 2.0 | 6.0 | 0.00 | 0.00 | 0.00 | 48 | 1010.7 |
| 20260507224551 | 67 | 166 | 0.0 | 3.0 | 0.00 | 0.00 | 0.00 | 49 | 1010.8 |
| 20260507224022 | 67 | 149 | 0.0 | 3.0 | 0.00 | 0.00 | 0.00 | 47 | 1010.8 |
| 20260507223603 | 67 | 295 | 0.0 | 2.0 | 0.00 | 0.00 | 0.00 | 48 | 1010.8 |
| 20260507223039 | 67 | 176 | 0.0 | 3.0 | 0.00 | 0.00 | 0.00 | 50 | 1010.8 |
| 20260507222519 | 67 | 176 | 0.0 | 4.0 | 0.00 | 0.00 | 0.00 | 47 | 1010.9 |
| 20260507222058 | 67 | 153 | 0.0 | 4.0 | 0.00 | 0.00 | 0.00 | 50 | 1010.9 |
| 20260507221539 | 67 | 142 | 0.0 | 3.0 | 0.00 | 0.00 | 0.00 | 49 | 1010.9 |
| 20260507221008 | 67 | 181 | 1.0 | 3.0 | 0.00 | 0.00 | 0.00 | 48 | 1011.0 |
| 20260507220548 | 67 | 236 | 0.0 | 3.0 | 0.00 | 0.00 | 0.00 | 49 | 1011.0 |
| 20260507220023 | 67 | 156 | 0.0 | 6.0 | 0.00 | 0.00 | 0.00 | 51 | 1011.0 |
| 20260507215606 | 67 | 216 | 2.0 | 6.0 | 0.00 | 0.00 | 0.00 | 47 | 1011.1 |
| 20260507215042 | 67 | 248 | 0.0 | 4.0 | 0.00 | 0.00 | 0.00 | 49 | 1011.2 |
| 20260507214517 | 67 | 162 | 0.0 | 4.0 | 0.00 | 0.00 | 0.00 | 51 | 1011.2 |
| 20260507214058 | 67 | 328 | 0.0 | 3.0 | 0.00 | 0.00 | 0.00 | 50 | 1011.3 |
| 20260507213535 | 67 | 265 | 0.0 | 3.0 | 0.00 | 0.00 | 0.00 | 48 | 1011.3 |
| 20260507213016 | 67 | 266 | 0.0 | 5.0 | 0.00 | 0.00 | 0.00 | 49 | 1011.4 |
| 20260507212551 | 67 | 117 | 1.0 | 5.0 | 0.00 | 0.00 | 0.00 | 49 | 1011.5 |
| 20260507212026 | 67 | 274 | 0.0 | 3.0 | 0.00 | 0.00 | 0.00 | 49 | 1011.5 |
| 20260507211502 | 67 | 283 | 0.0 | 3.0 | 0.00 | 0.00 | 0.00 | 50 | 1011.6 |
| 20260507211042 | 67 | 323 | 0.0 | 3.0 | 0.00 | 0.00 | 0.00 | 51 | 1011.7 |
| 20260507210522 | 67 | 248 | 1.0 | 6.0 | 0.00 | 0.00 | 0.00 | 51 | 1011.9 |
| 20260507210110 | 67 | 269 | 2.0 | 6.0 | 0.00 | 0.00 | 0.00 | 50 | 1012.1 |
| 20260507205534 | 67 | 262 | 1.0 | 3.0 | 0.00 | 0.00 | 0.00 | 50 | 1012.0 |
| 20260507205011 | 66 | 191 | 0.0 | 8.0 | 0.00 | 0.00 | 0.00 | 52 | 1012.1 |
| 20260507204551 | 66 | 169 | 1.0 | 8.0 | 0.00 | 0.00 | 0.00 | 51 | 1012.3 |
| 20260507204026 | 66 | 152 | 0.0 | 5.0 | 0.00 | 0.00 | 0.00 | 53 | 1012.4 |
| 20260507203504 | 66 | 270 | 1.0 | 6.0 | 0.00 | 0.00 | 0.00 | 52 | 1012.3 |
| 20260507203109 | 66 | 150 | 1.0 | 6.0 | 0.00 | 0.00 | 0.00 | 52 | 1012.5 |
| 20260507202522 | 66 | 144 | 0.0 | 9.0 | 0.00 | 0.00 | 0.00 | 52 | 1012.7 |
| 20260507202101 | 66 | 122 | 2.0 | 9.0 | 0.00 | 0.00 | 0.00 | 52 | 1012.5 |
| 20260507201537 | 66 | 158 | 0.0 | 4.0 | 0.00 | 0.00 | 0.00 | 54 | 1012.7 |
| 20260507201013 | 66 | 151 | 1.0 | 4.0 | 0.00 | 0.00 | 0.00 | 50 | 1012.7 |
| 20260507200558 | 66 | 250 | 1.0 | 5.0 | 0.00 | 0.00 | 0.00 | 50 | 1012.8 |
| 20260507200031 | 66 | 172 | 2.0 | 5.0 | 0.00 | 0.00 | 0.00 | 51 | 1012.8 |
| 20260507195507 | 66 | 312 | 0.0 | 7.0 | 0.00 | 0.00 | 0.00 | 53 | 1013.0 |
| 20260507195047 | 66 | 183 | 0.0 | 7.0 | 0.00 | 0.00 | 0.00 | 53 | 1013.0 |
| 20260507194528 | 66 | 164 | 0.0 | 4.0 | 0.00 | 0.00 | 0.00 | 52 | 1013.0 |
| 20260507194106 | 66 | 300 | 1.0 | 4.0 | 0.00 | 0.00 | 0.00 | 52 | 1013.2 |
| 20260507193541 | 66 | 275 | 0.0 | 4.0 | 0.00 | 0.00 | 0.00 | 51 | 1013.2 |
| 20260507193019 | 66 | 317 | 1.0 | 3.0 | 0.00 | 0.00 | 0.00 | 51 | 1013.2 |
| 20260507192558 | 65 | 286 | 1.0 | 3.0 | 0.00 | 0.00 | 0.00 | 52 | 1013.3 |
| 20260507192034 | 65 | 308 | 1.0 | 4.0 | 0.00 | 0.00 | 0.00 | 52 | 1013.3 |
| 20260507191514 | 65 | 311 | 0.0 | 4.0 | 0.00 | 0.00 | 0.00 | 53 | 1013.5 |
| 20260507191053 | 65 | 299 | 1.0 | 4.0 | 0.00 | 0.00 | 0.00 | 53 | 1013.5 |
| 20260507190527 | 65 | 317 | 2.0 | 4.0 | 0.00 | 0.00 | 0.00 | 53 | 1013.5 |
| 20260507190008 | 64 | 233 | 0.0 | 3.0 | 0.00 | 0.00 | 0.00 | 58 | 1013.8 |
| 20260507185543 | 63 | 162 | 0.0 | 5.0 | 0.00 | 0.00 | 0.00 | 57 | 1014.0 |
| 20260507185019 | 63 | 278 | 2.0 | 5.0 | 0.00 | 0.00 | 0.00 | 54 | 1014.1 |
| 20260507184600 | 63 | 286 | 0.0 | 5.0 | 0.00 | 0.00 | 0.00 | 56 | 1014.0 |
| 20260507184036 | 64 | 145 | 0.0 | 7.0 | 0.00 | 0.00 | 0.00 | 54 | 1014.2 |
| 20260507183510 | 64 | 282 | 0.0 | 4.0 | 0.00 | 0.00 | 0.00 | 53 | 1014.3 |
| 20260507183052 | 64 | 199 | 0.0 | 4.0 | 0.00 | 0.00 | 0.00 | 55 | 1014.3 |
| 20260507182527 | 64 | 262 | 1.0 | 4.0 | 0.00 | 0.00 | 0.00 | 55 | 1014.3 |
| 20260507182004 | 63 | 274 | 0.0 | 3.0 | 0.00 | 0.00 | 0.00 | 55 | 1014.5 |
| 20260507181543 | 63 | 285 | 1.0 | 3.0 | 0.00 | 0.00 | 0.00 | 54 | 1014.5 |
| 20260507181020 | 63 | 314 | 0.0 | 3.0 | 0.00 | 0.00 | 0.00 | 55 | 1014.6 |
| 20260507180559 | 63 | 243 | 1.0 | 6.0 | 0.00 | 0.00 | 0.00 | 54 | 1014.7 |
| 20260507180038 | 63 | 181 | 0.0 | 6.0 | 0.00 | 0.00 | 0.00 | 58 | 1014.7 |
| 20260507175509 | 63 | 298 | 0.0 | 3.0 | 0.00 | 0.00 | 0.00 | 56 | 1014.8 |
| 20260507175049 | 63 | 304 | 0.0 | 3.0 | 0.00 | 0.00 | 0.00 | 57 | 1014.8 |
| 20260507174534 | 63 | 284 | 0.0 | 3.0 | 0.00 | 0.00 | 0.00 | 56 | 1014.9 |
| 20260507174104 | 63 | 260 | 1.0 | 4.0 | 0.00 | 0.00 | 0.00 | 56 | 1014.8 |
| 20260507173542 | 63 | 196 | 1.0 | 4.0 | 0.00 | 0.00 | 0.00 | 60 | 1014.9 |
| 20260507173044 | 63 | 161 | 0.0 | 3.0 | 0.00 | 0.00 | 0.00 | 58 | 1014.9 |
| 20260507172557 | 63 | 47 | 0.0 | 3.0 | 0.00 | 0.00 | 0.00 | 55 | 1015.1 |
| 20260507172033 | 63 | 224 | 0.0 | 3.0 | 0.00 | 0.00 | 0.00 | 57 | 1015.2 |
| 20260507171518 | 62 | 303 | 0.0 | 3.0 | 0.00 | 0.00 | 0.00 | 56 | 1015.2 |
| 20260507171051 | 62 | 257 | 1.0 | 4.0 | 0.00 | 0.00 | 0.00 | 54 | 1015.3 |
| 20260507170526 | 63 | 274 | 1.0 | 4.0 | 0.00 | 0.00 | 0.00 | 56 | 1015.4 |
| 20260507170003 | 62 | 254 | 0.0 | 4.0 | 0.00 | 0.00 | 0.00 | 56 | 1015.5 |
| 20260507165543 | 62 | 309 | 0.0 | 4.0 | 0.00 | 0.00 | 0.00 | 57 | 1015.6 |
| 20260507165019 | 61 | 269 | 1.0 | 5.0 | 0.00 | 0.00 | 0.00 | 57 | 1015.6 |
| 20260507164602 | 61 | 284 | 2.0 | 5.0 | 0.00 | 0.00 | 0.00 | 55 | 1015.7 |
| 20260507164036 | 61 | 282 | 0.0 | 3.0 | 0.00 | 0.00 | 0.00 | 58 | 1015.8 |
| 20260507163516 | 61 | 218 | 0.0 | 2.0 | 0.00 | 0.00 | 0.00 | 58 | 1015.8 |
| 20260507163054 | 61 | 259 | 0.0 | 4.0 | 0.00 | 0.00 | 0.00 | 57 | 1015.8 |
| 20260507162535 | 61 | 271 | 0.0 | 4.0 | 0.00 | 0.00 | 0.00 | 56 | 1015.9 |
| 20260507162008 | 61 | 169 | 0.0 | 4.0 | 0.00 | 0.00 | 0.00 | 58 | 1015.9 |
| 20260507161552 | 61 | 311 | 0.0 | 4.0 | 0.00 | 0.00 | 0.00 | 59 | 1015.8 |
| 20260507161025 | 61 | 276 | 0.0 | 2.0 | 0.00 | 0.00 | 0.00 | 59 | 1015.9 |
| 20260507160502 | 61 | 318 | 0.0 | 4.0 | 0.00 | 0.00 | 0.00 | 58 | 1016.0 |
| 20260507160049 | 61 | 323 | 0.0 | 4.0 | 0.00 | 0.00 | 0.00 | 58 | 1016.0 |
| 20260507155518 | 61 | 281 | 0.0 | 4.0 | 0.00 | 0.00 | 0.00 | 58 | 1016.0 |
| 20260507155059 | 61 | 269 | 0.0 | 4.0 | 0.00 | 0.00 | 0.00 | 57 | 1016.2 |
| 20260507154537 | 60 | 271 | 0.0 | 3.0 | 0.00 | 0.00 | 0.00 | 59 | 1016.2 |
| 20260507154012 | 60 | 250 | 0.0 | 3.0 | 0.00 | 0.00 | 0.00 | 59 | 1016.2 |
| 20260507153552 | 60 | 136 | 0.0 | 3.0 | 0.00 | 0.00 | 0.00 | 60 | 1016.1 |
| 20260507153028 | 59 | 212 | 0.0 | 3.0 | 0.00 | 0.00 | 0.00 | 59 | 1016.2 |
| 20260507152504 | 59 | 275 | 0.0 | 3.0 | 0.00 | 0.00 | 0.00 | 60 | 1016.3 |
| 20260507152045 | 59 | 296 | 1.0 | 3.0 | 0.00 | 0.00 | 0.00 | 63 | 1016.4 |
| 20260507151520 | 59 | 306 | 0.0 | 3.0 | 0.00 | 0.00 | 0.00 | 61 | 1016.4 |
| 20260507151101 | 59 | 275 | 1.0 | 3.0 | 0.00 | 0.00 | 0.00 | 60 | 1016.5 |
| 20260507150537 | 59 | 178 | 0.0 | 3.0 | 0.00 | 0.00 | 0.00 | 61 | 1016.5 |
| 20260507150023 | 59 | 278 | 0.0 | 3.0 | 0.00 | 0.00 | 0.00 | 61 | 1016.5 |